Location: Unspecified
(0.0000°N, 0.0000°E)
Time: 21:31:16
(UTC+00:00)

Vanguard 2 - All Passes

Search period start: 26 May 2024 00:00
Search period end: 05 June 2024 00:00
Orbit: 552 x 2914 km, 32.9° (Epoch: 25 May)

Date Brightness Start Highest point End Pass type
(mag) Time Alt. Az. Time Alt. Az. Time Alt. Az.
26 May - 01:17:28 10° WSW 01:25:50 29° SSW 01:37:49 10° SSE visible
26 May - 03:33:00 10° SW 03:41:12 16° S 03:50:34 10° SSE visible
26 May - 05:48:47 10° SSW 05:59:18 18° S 06:09:26 10° SE daylight
26 May - 08:00:40 10° SSW 08:15:30 34° SSE 08:26:43 10° E daylight
26 May - 10:12:49 10° SW 10:28:13 79° SE 10:37:30 10° ENE daylight
26 May - 12:28:09 10° W 12:37:38 30° NW 12:43:56 10° NNE daylight
26 May - 21:15:20 10° NNW 21:20:07 32° NE 21:27:16 10° ESE visible
26 May - 23:22:04 10° WNW 23:28:53 55° SSW 23:40:23 10° SE night (unlit)
27 May - 01:33:18 10° WSW 01:41:10 23° SSW 01:51:48 10° SSE visible
27 May - 03:49:33 10° SSW 03:57:18 15° S 04:05:53 10° SSE visible
27 May - 06:03:26 10° SSW 06:15:14 21° SSE 06:26:18 10° ESE daylight
27 May - 08:14:48 10° SW 08:30:39 42° SSE 08:42:11 10° E daylight
27 May - 10:27:26 10° WSW 10:42:42 81° NW 10:51:53 10° NE daylight
27 May - 12:44:21 10° W 12:51:55 21° NW 12:57:23 10° N daylight
27 May - 21:29:12 10° NW 21:34:18 51° NE 21:42:29 10° ESE visible
27 May - 23:36:56 10° W 23:43:42 40° SSW 23:54:32 10° SE night (unlit)
28 May - 01:49:31 10° SW 01:56:41 18° SSW 02:05:49 10° SSE visible
28 May - 04:05:36 10° SSW 04:13:26 15° S 04:21:57 10° SE visible
28 May - 06:17:46 10° SSW 06:30:57 25° SSE 06:42:56 10° ESE daylight
28 May - 08:28:57 10° SW 08:45:37 53° SSE 08:57:19 10° ENE daylight
28 May - 10:42:18 10° WSW 10:57:04 63° NW 11:06:05 10° NE daylight
28 May - 13:01:23 10° WNW 13:06:18 14° NW 13:10:16 10° N daylight
28 May - 21:43:19 10° NW 21:48:35 79° NE 21:57:18 10° ESE visible
28 May - 23:52:07 10° W 23:58:40 29° SSW 00:08:31 10° SSE night (unlit)
29 May - 02:06:05 10° SW 02:12:23 15° S 02:19:58 10° SSE visible
29 May - 04:20:58 10° SSW 04:29:34 16° S 04:38:46 10° SE visible
29 May - 06:31:56 10° SSW 06:46:26 30° SSE 06:59:13 10° E daylight
29 May - 08:43:13 10° SW 09:00:24 66° SSE 09:12:09 10° ENE daylight
29 May - 10:57:29 10° WSW 11:11:20 48° NW 11:20:06 10° NNE daylight
29 May - 19:52:24 10° N 19:55:09 16° NE 19:58:27 10° ENE visible
29 May - 21:57:41 10° WNW 22:03:00 69° SSW 22:11:47 10° SE night (unlit)
30 May - 00:07:42 10° WSW 00:13:47 22° SSW 00:22:19 10° SSE night (unlit)
30 May - 02:22:49 10° SSW 02:28:14 13° S 02:34:26 10° SSE visible
30 May - 04:35:44 10° SSW 04:45:33 18° SSE 04:55:56 10° SE visible
30 May - 06:46:01 10° SSW 07:01:40 37° SSE 07:15:04 10° E daylight
30 May - 08:57:37 10° SW 09:15:02 82° SE 09:26:45 10° ENE daylight
30 May - 11:13:04 10° W 11:25:36 36° NW 11:33:54 10° NNE daylight
30 May - 20:05:38 10° NNW 20:09:21 26° NE 20:14:17 10° E visible
30 May - 22:12:20 10° WNW 22:17:35 45° SSW 22:26:01 10° SE night (unlit)
31 May - 00:23:45 10° SW 00:29:03 17° SSW 00:35:57 10° SSE night (unlit)
31 May - 02:39:17 10° SSW 02:44:11 12° S 02:49:39 10° SSE visible
31 May - 04:50:06 10° SSW 05:01:20 21° SSE 05:13:04 10° ESE visible
31 May - 07:00:06 10° SW 07:16:42 45° SSE 07:30:33 10° E daylight
31 May - 09:12:12 10° WSW 09:29:31 82° NW 09:41:08 10° NE daylight
31 May - 11:29:07 10° W 11:39:56 27° NW 11:47:32 10° NNE daylight
31 May - 20:19:25 10° NW 20:23:33 46° NE 20:29:26 10° ESE visible
31 May - 22:27:18 10° W 22:32:21 31° SSW 22:39:59 10° SSE night (unlit)
01 Jun - 00:40:24 10° SW 00:44:29 13° S 00:49:21 10° SSE night (unlit)
01 Jun - 02:54:56 10° SSW 03:00:11 12° S 03:06:00 10° SSE visible
01 Jun - 05:04:14 10° SSW 05:16:53 25° SSE 05:29:53 10° ESE visible
01 Jun - 07:14:13 10° SW 07:31:34 56° SSE 07:45:41 10° ENE daylight
01 Jun - 09:27:01 10° WSW 09:43:55 66° NW 09:55:19 10° NE daylight
01 Jun - 11:45:46 10° WNW 11:54:23 20° NW 12:00:54 10° N daylight
01 Jun - 20:33:30 10° NW 20:37:49 81° NE 20:44:09 10° ESE visible
01 Jun - 22:42:39 10° WSW 22:47:16 21° SSW 22:53:40 10° SSE night (unlit)
02 Jun - 00:58:13 10° SSW 01:00:04 10° S 01:02:02 10° S night (unlit)
02 Jun - 03:09:42 10° SSW 03:16:07 14° SSE 03:23:18 10° SE visible
02 Jun - 05:18:15 10° SSW 05:32:11 31° SSE 05:46:18 10° E visible
02 Jun - 07:28:26 10° SW 07:46:17 68° SE 08:00:32 10° ENE daylight
02 Jun - 09:42:08 10° WSW 09:58:16 52° NW 10:09:20 10° NE daylight
02 Jun - 12:03:18 10° WNW 12:09:02 14° NW 12:13:47 10° N daylight
02 Jun - 18:42:33 10° N 18:44:27 13° NE 18:46:26 10° ENE visible
02 Jun - 20:47:54 10° WNW 20:52:12 58° SSW 20:58:30 10° SE visible
02 Jun - 22:58:36 10° SW 23:02:18 15° SSW 23:06:59 10° SSE night (unlit)
03 Jun - 03:23:55 10° SSW 03:31:54 16° SSE 03:40:56 10° SE visible
03 Jun - 05:32:13 10° SSW 05:47:15 38° SSE 06:02:16 10° E visible
03 Jun - 07:42:46 10° SW 08:00:51 83° SE 08:15:07 10° ENE daylight
03 Jun - 09:57:36 10° WSW 10:12:37 41° NW 10:23:14 10° NNE daylight
03 Jun - 18:55:32 10° NNW 18:58:45 23° NE 19:02:21 10° E visible
03 Jun - 21:02:37 10° W 21:06:44 34° SSW 21:12:33 10° SE visible
03 Jun - 23:15:57 10° SSW 23:17:29 11° SSW 23:19:09 10° S night (unlit)
04 Jun - 03:37:53 10° SSW 03:47:28 19° SSE 03:58:26 10° ESE visible
04 Jun - 05:46:12 10° SW 06:02:08 46° SSE 06:17:48 10° E daylight
04 Jun - 07:57:17 10° WSW 08:15:20 82° NW 08:29:30 10° NE daylight
04 Jun - 10:13:31 10° W 10:27:04 32° NW 10:36:58 10° NNE daylight
04 Jun - 19:09:15 10° NW 19:13:00 43° NE 19:17:25 10° ESE visible
04 Jun - 21:17:46 10° WSW 21:21:25 22° SSW 21:26:14 10° SSE visible
